Skip Page Navigation
NASA JPL Caltech
NASA Logo - Jet Propulsion Laboratory + View the NASA Portal
+ Center for Near-Earth Object Studies
JPL Home Earth Solar System Stars & Galaxies Technology
JPL Solar System Dynamics
BODIES ORBITS EPHEMERIDES TOOLS PHYSICAL DATA DISCOVERY FAQ SITE MAP
JPL Small-Body Database Browser
Search: [ help ]  
351545 (2005 TE15)
Classification: Apollo [NEO]          SPK-ID: 2351545
Ephemeris | Orbit Diagram | Orbital Elements | Mission Design | Physical Parameters | Discovery Circumstances | Close-Approach Data ]

[ show orbit diagram ]
Orbital Elements at Epoch 2459200.5 (2020-Dec-17.0) TDB
Reference: JPL 95 (heliocentric ecliptic J2000)
 Element Value Uncertainty (1-sigma)   Units 
e .3435390660688619 3.7267e-08  
a 1.204354485533292 2.2715e-09 au
q .79061167035734 4.6101e-08 au
i 13.12820634869849 4.8532e-06 deg
node 10.89045796219568 1.4738e-05 deg
peri 241.1962751716225 1.4398e-05 deg
M 250.1518829118634 7.3475e-06 deg
tp 2459347.805867102478
(2021-May-13.30586710)
9.9323e-06 TDB
period 482.7584993044829
1.32
1.3658e-06
3.739e-09
d
yr
n .7457144732172654 2.1097e-09 deg/d
Q 1.618097300709243 3.0518e-09 au
  Orbit Determination Parameters
   # obs. used (total)      381  
   data-arc span      5642 days (15.45 yr)  
   first obs. used      2005-10-04  
   last obs. used      2021-03-16  
   planetary ephem.      DE441  
   SB-pert. ephem.      SB441-N16  
   condition code      0  
   norm. resid. RMS      .49072  
   source      ORB  
   producer      Otto Matic  
   solution date      2021-Apr-14 08:58:40  

Additional Information
 Earth MOID = .0551691 au 
 Jupiter MOID = 3.4607 au 
 T_jup = 5.200 
[ show covariance matrix ]

Ephemeris | Orbit Diagram | Orbital Elements | Mission Design | Physical Parameters | Discovery Circumstances | Close-Approach Data ]

Physical Parameter Table
Parameter Symbol Value Units Sigma Reference Notes
absolute magnitude H 19.7   n/a MPO264878  

351545 (2005 TE15)          Discovered 2005-Oct-04 by NEAT at Palomar
Reference: 20130127/Numbers.arcLast Updated: 2013-01-31

[ show close-approach data ]
Ephemeris | Orbit Diagram | Orbital Elements | Mission Design | Physical Parameters | Discovery Circumstances | Close-Approach Data ]
ABOUT SSD CREDITS/AWARDS PRIVACY/COPYRIGHT GLOSSARY LINKS
FirstGov 2021-Apr-22 12:39 UT
(server date/time)  
NASA Home Page
Site Manager:   Ryan S. Park
Webmaster  Alan B. Chamberlin